Lid_Strength_Index
2 2 3 3 4 4 4 4 3 1 1 1 1 2 2 3 2 2 3 3 2 3
3 3 3 3 3 4 3 3 3 3 3 3 2 2 3 3 4 4 3 3 3 3
3 3 3 3 3 3 3 3 3 3 3 3 3 3 3 3 3 3 3 4 5 5
4 4 4 4 3 4 4 3 3 3 3 4 4 3 2 2 2 2 2 3 2 3
3 4 4 5 5 4 4 3 3 3 3 3 3 3 3 4 4 3 3 3 3 3
3 4 4 4 3 3 3 3 4 2 3 2 2 3 3 4 4 5 5 5 5 5
4 4 4 4 3 3 4 4 5 3 3 3 2 3 4 5 6 7 8 7 7 6
3 4 4 3 3 4 4 4 4 5 5 4 3 3 5 7 8 9 10 9 8 7
2 3 4 4 4 4 4 5 5 6 6 6 4 6 6 7 9 10 11 11 11 9
2 3 4 4 4 5 6 6 6 7 7 7 6 7 7 7 9 11 12 12 12 11
1 3 4 4 5 5 7 7 7 7 7 8 7 7 8 7 8 10 10 10 10 12
2 2 3 4 4 4 6 7 7 7 8 8 8 8 8 6 6 7 7 7 8 10
1 1 3 4 4 4 4 5 6 7 7 8 8 10 9 7 7 8 8 8 8 8
1 1 1 2 3 3 3 4 4 6 7 8 9 9 10 9 7 7 8 8 9 10